[[{"header":{"parameterUnit":"m.s-1","parameterCategory":1,"la1":30.2991,"la2":30.254,"lo1":-89.0895,"lo2":-89.0444,"dy":0.0017,"dx":0.0017,"nx":28,"ny":28,"refTime":"2026-01-02T03:00:00:Z","depth":0,"parameterNumber":2,"parameterNumberName":"U-component_of_WINDS"},"data":[0,0,0,0,0,0,0,0,0,0,0,0,0,0,0,0,0,0,0,0,0,0,0,0,0,0,0,0,0,0,0,0,0,0,0,0,0,0,0,0,0,0,0,0,0,0,0,0,0,0,0,0,0,0,0,0,0,0,2.8709,2.8709,0,2.8731,2.8731,2.8732,2.8663,2.8661,2.8659,2.8657,2.8682,2.8685,2.8688,0,0,0,0,0,0,0,0,0,0,0,0,0,2.8611,2.8613,2.8709,2.8709,2.8709,2.8731,2.8731,2.8732,2.8664,2.8661,2.8659,2.8656,2.8682,2.8685,2.8688,0,0,0,0,0,0,0,0,0,0,0,0,0,2.8646,2.8614,2.8709,2.8678,2.8675,2.8731,2.8731,2.8732,2.8664,2.8661,2.8658,2.8655,2.8681,2.8684,2.8688,2.8775,0,0,2.87,2.8702,0,0,0,0,0,0,0,0,2.8644,2.8649,2.8682,2.868,2.8677,2.8691,2.8706,2.8746,2.8665,2.8669,2.8657,2.8653,2.8688,2.8691,2.8702,2.8776,2.8778,2.8701,2.8703,2.8705,2.8706,0,0,0,0,0,0,0,2.8642,2.8648,2.8717,2.8683,2.868,2.8664,2.8666,2.8714,2.8696,2.8668,2.8663,2.8667,2.8686,2.8699,2.8702,2.8778,2.87,2.8704,2.8706,2.8708,2.893,2.8933,0,0,0,0,0,0,2.8643,2.8646,2.8717,2.8718,2.8652,2.8669,2.867,2.869,2.8695,2.8693,2.8669,2.8663,2.8693,2.8698,2.8703,2.8809,2.8705,2.8708,2.8711,2.8926,2.893,2.8934,0,0,0,0,0,0,2.8641,2.865,2.8716,2.8681,2.8688,2.8674,2.8696,2.8692,2.8704,2.8696,2.8693,2.8685,2.8691,2.8697,2.8759,2.8808,2.871,2.8714,2.8922,2.8927,2.8932,2.9019,0,0,0,0,0,0,2.8638,2.8649,2.8681,2.8682,2.869,2.877,2.8699,2.8695,2.8711,2.8704,2.871,2.8708,2.8689,2.8753,2.8763,2.8812,2.8717,2.8917,2.8924,2.8931,2.9011,2.9026,2.9039,0,0,0,0,0,2.8635,2.8704,2.8683,2.8692,2.873,2.8773,2.8778,2.8754,2.8715,2.8748,2.8743,2.8708,2.8801,2.876,2.877,2.8822,2.8914,2.8922,2.893,2.9005,2.9023,2.9039,0,0,0,0,0,0,2.8709,2.8703,2.868,2.8751,2.8763,2.8761,2.8802,2.8774,2.8797,2.8789,2.876,2.8762,2.883,2.8831,2.8786,2.8908,2.8851,2.8862,2.8905,2.8922,2.8936,2.8935,2.872,0,0,0,0,0,2.8733,2.8768,2.8762,2.8825,2.8832,2.8817,2.8834,2.8815,2.8827,2.8832,2.8831,2.8845,2.8877,2.8899,2.8929,2.9011,2.9013,2.9051,2.9065,2.9077,2.9087,2.9135,2.9153,2.896,2.896,2.896,0,0,2.8784,2.8786,2.8809,2.884,2.8847,2.8886,2.8821,2.8863,2.8893,2.8838,2.8897,2.8897,2.8911,2.8984,2.9016,2.8987,2.914,2.9087,2.9096,2.91,2.9145,2.9163,2.9179,2.8966,2.8965,2.8964,0,0,2.8898,2.8901,2.8956,2.8965,2.8977,2.8966,2.8979,2.8983,2.8981,2.9039,2.9001,2.9035,2.9091,2.9103,2.9117,2.9239,2.9209,2.9249,2.9322,2.9369,2.9385,2.9398,2.9445,2.9462,2.9259,2.9259,2.9259,0,2.896,2.9015,2.8988,2.9034,2.9051,2.9003,2.9061,2.9071,2.9092,2.9105,2.9072,2.9144,2.9149,2.9227,2.9257,2.9269,2.9286,2.9249,2.9384,2.9398,2.941,2.9454,2.9472,2.9264,2.9264,2.9263,2.9263,0,2.9093,2.9133,2.9176,2.9198,2.9219,2.9271,2.9253,2.9278,2.9258,2.9252,2.9314,2.9319,2.935,2.9367,2.9347,2.9443,2.9425,2.9389,2.9332,2.9434,2.9476,2.9492,2.9271,2.927,2.9268,2.9267,0,0,2.9253,2.9262,2.9278,2.929,2.93,2.9331,2.9382,2.9413,2.9436,2.9453,2.9497,2.9547,2.9515,2.953,2.9512,2.9553,2.9654,2.9512,2.9512,2.9541,2.9765,2.9794,2.9814,2.9633,2.9636,2.9639,2.9765,0,2.9368,2.9454,2.9433,2.9519,2.9558,2.9515,2.956,2.9572,2.9569,2.9602,2.9597,2.9635,2.9587,2.9597,2.9635,2.9633,2.9699,2.9624,2.9677,2.9679,2.9678,2.9835,2.9866,2.9985,2.9781,2.9783,2.9785,0,2.9513,2.9536,2.9627,2.9635,2.965,2.9691,2.9719,2.975,2.9766,2.976,2.9779,2.9754,2.9807,2.9748,2.9823,2.9772,2.9793,2.9795,2.98,2.9806,2.974,2.9849,3.0021,3.0041,2.981,2.9808,2.9806,0,2.9625,2.9679,2.9741,2.9752,2.9762,2.9792,2.9798,2.9809,2.9831,2.9856,2.987,2.9901,2.9919,2.9944,2.9929,2.9887,3.0009,2.9947,3.0008,3.0009,3.0037,3.0036,3.0219,3.0046,3.0046,3.0045,3.0045,0,2.9757,2.9815,2.9793,2.9831,2.9896,2.9872,2.9937,2.9938,2.995,2.999,2.9954,2.9992,2.9968,3.0006,2.9994,3.0061,3.0068,3.0067,3.0064,3.0072,3.0073,3.0087,3.008,3.005,3.0049,3.0048,3.0047,0,2.9894,2.988,2.9946,2.9951,2.9954,3.0002,3.0007,3.0044,3.0038,3.009,3.01,3.0092,3.0134,3.0121,3.0167,3.0159,3.0245,3.0229,3.024,3.0237,3.0301,3.0297,3.0501,3.0529,3.0335,3.0337,3.0338,0,2.998,3.0024,3.0034,3.0058,3.0067,3.0106,3.0128,3.0106,3.013,3.0153,3.0188,3.0228,3.0258,3.0329,3.0328,3.0364,3.0352,3.0421,3.0357,3.0365,3.0357,3.0356,3.0362,3.0435,3.0437,3.0439,3.044,0,3.0136,3.0128,3.016,3.0192,3.0219,3.0243,3.0263,3.0286,3.0265,3.0295,3.0339,3.0363,3.041,3.0452,3.0485,3.0493,3.0466,3.046,3.0477,3.0487,3.0493,3.0495,3.0278,3.0456,3.0454,3.0453,3.0452,3.0452,3.0253,3.0291,3.0306,3.0344,3.0357,3.0378,3.0415,3.0414,3.0449,3.0487,3.0472,3.0523,3.054,3.0582,3.0595,3.0636,3.061,3.0633,3.0639,3.0646,3.0656,3.0484,3.0641,3.0641,3.064,3.064,3.064,0,3.041,3.0417,3.0453,3.0484,3.0515,3.0484,3.0506,3.0535,3.058,3.0598,3.063,3.0682,3.0722,3.0725,3.0764,3.0797,3.0786,3.0808,3.0807,3.0811,3.0675,3.0659,3.0817,3.0817,3.0817,3.0817,3.0817,3.0817,3.0496,3.0561,3.0555,3.0628,3.0635,3.0685,3.0701,3.0721,3.0736,3.0795,3.0829,3.083,3.0844,3.0883,3.0921,3.092,3.0938,3.0967,3.0963,3.0837,3.0819,3.0803,3.0787,3.097,3.097,3.1095,3.1096,3.1097]},{"header":{"parameterUnit":"m.s-1","parameterCategory":1,"la1":30.2991,"la2":30.254,"lo1":-89.0895,"lo2":-89.0444,"dy":0.0017,"dx":0.0017,"nx":28,"ny":28,"refTime":"2026-01-02T03:00:00:Z","depth":0,"parameterNumber":3,"parameterNumberName":"V-component_of_WINDS"},"data":[0,0,0,0,0,0,0,0,0,0,0,0,0,0,0,0,0,0,0,0,0,0,0,0,0,0,0,0,0,0,0,0,0,0,0,0,0,0,0,0,0,0,0,0,0,0,0,0,0,0,0,0,0,0,0,0,0,0,-2.02,-2.0199,0,-2.0073,-2.0072,-2.007,-2.0085,-2.0087,-2.0089,-2.0091,-1.995,-1.9945,-1.9939,0,0,0,0,0,0,0,0,0,0,0,0,0,-2.0446,-2.0442,-2.02,-2.0199,-2.0197,-2.0074,-2.0072,-2.007,-2.0085,-2.0087,-2.009,-2.0092,-1.9952,-1.9945,-1.9939,0,0,0,0,0,0,0,0,0,0,0,0,0,-2.0331,-2.044,-2.0201,-2.019,-2.0188,-2.0074,-2.0072,-2.007,-2.0084,-2.0088,-2.0091,-2.0094,-1.9954,-1.9946,-1.9938,-1.9823,0,0,-1.9911,-1.9908,0,0,0,0,0,0,0,0,-2.0338,-2.0322,-2.0193,-2.0191,-2.0188,-2.0099,-2.0107,-1.9986,-2.0084,-2.0123,-2.0091,-2.0095,-1.9996,-1.9985,-1.9954,-1.9816,-1.981,-1.9911,-1.9906,-1.9902,-1.9899,0,0,0,0,0,0,0,-2.0346,-2.0327,-2.015,-2.0191,-2.0188,-2.0188,-2.0176,-2.0084,-2.0043,-2.012,-2.0121,-2.0106,-1.9995,-1.9962,-1.995,-1.9808,-1.9911,-1.9903,-1.9898,-1.9895,-1.957,-1.9567,0,0,0,0,0,0,-2.0358,-2.0334,-2.0154,-2.0146,-2.0272,-2.0182,-2.0167,-2.0124,-2.0045,-2.0036,-2.0104,-2.0107,-1.9975,-1.996,-1.9945,-1.9806,-1.9902,-1.9894,-1.9889,-1.9573,-1.9569,-1.9565,0,0,0,0,0,0,-2.0363,-2.0341,-2.0159,-2.024,-2.0217,-2.0174,-2.0125,-2.012,-2.0086,-2.0033,-2.0024,-2.0077,-1.9977,-1.9957,-1.9854,-1.9801,-1.989,-1.9882,-1.9578,-1.9572,-1.9567,-1.9525,0,0,0,0,0,0,-2.037,-2.0343,-2.0301,-2.0239,-2.0213,-2.0072,-2.0122,-2.0115,-2.0073,-2.0076,-2.0006,-1.9997,-1.9978,-1.9867,-1.9845,-1.9791,-1.9876,-1.9582,-1.9575,-1.9569,-1.9531,-1.9519,-1.9509,0,0,0,0,0,-2.0379,-2.0292,-2.0299,-2.0277,-2.016,-2.0069,-2.0054,-2.0037,-2.0069,-2.0024,-1.999,-1.9999,-1.9811,-1.9856,-1.9832,-1.9774,-1.9585,-1.9577,-1.9569,-1.9536,-1.9522,-1.951,0,0,0,0,0,0,-2.0344,-2.0284,-2.0291,-2.0182,-2.0131,-2.0072,-2.0016,-2.0022,-1.9958,-1.9963,-1.9942,-1.9925,-1.9821,-1.9787,-1.9839,-1.9659,-1.9702,-1.9689,-1.9685,-1.967,-1.966,-1.9669,-1.9869,0,0,0,0,0,-2.0325,-2.026,-2.0209,-2.0118,-2.0092,-2.0059,-2.0018,-2.001,-1.9955,-1.9932,-1.989,-1.9834,-1.9762,-1.9714,-1.9645,-1.9527,-1.9511,-1.9476,-1.9465,-1.9456,-1.9444,-1.9379,-1.9362,-1.9539,-1.9539,-1.954,0,0,-2.0282,-2.0241,-2.0201,-2.011,-2.007,-2.0,-2.004,-1.9964,-1.9911,-1.9919,-1.982,-1.9788,-1.9723,-1.9612,-1.9561,-1.958,-1.9392,-1.9446,-1.9439,-1.9432,-1.9369,-1.9352,-1.9337,-1.9534,-1.9535,-1.9536,0,0,-2.017,-2.0133,-2.0053,-2.0013,-1.9953,-1.9932,-1.9913,-1.9853,-1.9833,-1.9734,-1.9739,-1.9674,-1.9551,-1.9505,-1.9465,-1.9337,-1.9342,-1.9315,-1.9256,-1.9193,-1.9179,-1.9166,-1.912,-1.9103,-1.9304,-1.9304,-1.9303,0,-2.0123,-2.0022,-2.001,-1.9935,-1.9894,-1.9903,-1.9821,-1.9781,-1.97,-1.967,-1.9694,-1.9541,-1.9498,-1.9376,-1.9346,-1.9314,-1.9289,-1.9322,-1.9183,-1.917,-1.9158,-1.9113,-1.9096,-1.9301,-1.9301,-1.9301,-1.9302,0,-1.9967,-1.9896,-1.9839,-1.9765,-1.9718,-1.9639,-1.9613,-1.9566,-1.9563,-1.9538,-1.9436,-1.9386,-1.9307,-1.9277,-1.9271,-1.9154,-1.9169,-1.9188,-1.923,-1.9138,-1.9096,-1.9078,-1.9296,-1.9297,-1.9298,-1.9299,0,0,-1.9826,-1.975,-1.9729,-1.9696,-1.9631,-1.9574,-1.9496,-1.9423,-1.9382,-1.9326,-1.9258,-1.9155,-1.9173,-1.9128,-1.9117,-1.9062,-1.8963,-1.9087,-1.9086,-1.9065,-1.883,-1.8815,-1.8796,-1.8967,-1.8964,-1.8961,-1.8835,0,-1.9706,-1.9571,-1.9559,-1.9436,-1.9369,-1.9378,-1.9309,-1.9261,-1.9236,-1.9173,-1.9145,-1.9072,-1.9102,-1.9075,-1.9021,-1.8987,-1.8915,-1.8996,-1.89,-1.8897,-1.8915,-1.8774,-1.8757,-1.864,-1.8819,-1.8816,-1.8814,0,-1.9548,-1.9492,-1.9363,-1.9309,-1.9281,-1.9219,-1.9152,-1.9093,-1.9038,-1.9023,-1.8975,-1.8972,-1.8888,-1.8936,-1.8818,-1.8873,-1.8834,-1.8811,-1.8806,-1.8795,-1.8849,-1.8757,-1.8603,-1.8585,-1.8788,-1.879,-1.8792,0,-1.9457,-1.9349,-1.9258,-1.9229,-1.9164,-1.9121,-1.9091,-1.904,-1.8997,-1.8936,-1.8908,-1.8838,-1.8798,-1.8743,-1.872,-1.8757,-1.8603,-1.8649,-1.8587,-1.8587,-1.8552,-1.8554,-1.8388,-1.8529,-1.853,-1.853,-1.853,0,-1.9323,-1.9243,-1.9217,-1.916,-1.9071,-1.9058,-1.8969,-1.8941,-1.8895,-1.8832,-1.8834,-1.8774,-1.8748,-1.8683,-1.8664,-1.857,-1.8552,-1.8536,-1.8532,-1.8535,-1.8537,-1.8507,-1.8514,-1.8525,-1.8526,-1.8527,-1.8528,0,-1.9205,-1.9185,-1.9086,-1.9035,-1.902,-1.8956,-1.891,-1.8854,-1.8832,-1.8751,-1.8732,-1.8695,-1.8618,-1.8591,-1.8497,-1.8485,-1.8374,-1.8377,-1.8394,-1.8393,-1.8332,-1.8337,-1.8139,-1.8112,-1.8273,-1.8271,-1.827,0,-1.9121,-1.906,-1.9003,-1.8963,-1.8933,-1.8867,-1.8825,-1.881,-1.8765,-1.8698,-1.865,-1.8576,-1.8515,-1.8392,-1.8355,-1.8283,-1.8283,-1.8219,-1.8272,-1.8277,-1.8281,-1.8284,-1.8277,-1.8208,-1.8206,-1.8205,-1.8204,0,-1.8972,-1.8965,-1.8906,-1.8843,-1.8794,-1.8742,-1.8692,-1.8658,-1.8635,-1.8584,-1.8509,-1.8462,-1.8369,-1.8293,-1.8221,-1.8186,-1.819,-1.8188,-1.817,-1.8171,-1.8183,-1.8175,-1.8366,-1.8192,-1.8193,-1.8194,-1.8195,-1.8195,-1.8867,-1.8814,-1.8767,-1.87,-1.8662,-1.8616,-1.8562,-1.8535,-1.8473,-1.8398,-1.8392,-1.831,-1.8256,-1.8159,-1.8122,-1.8056,-1.8073,-1.8047,-1.8039,-1.8033,-1.8028,-1.8196,-1.8043,-1.8043,-1.8043,-1.8043,-1.8044,0,-1.8717,-1.8688,-1.8628,-1.856,-1.8508,-1.8521,-1.8467,-1.8421,-1.8351,-1.8302,-1.8244,-1.8157,-1.8085,-1.8043,-1.797,-1.7925,-1.7925,-1.7906,-1.7908,-1.79,-1.8017,-1.804,-1.7908,-1.7908,-1.7908,-1.7908,-1.7908,-1.7908,-1.8633,-1.8545,-1.8533,-1.8425,-1.8395,-1.8318,-1.8286,-1.8243,-1.8205,-1.8109,-1.805,-1.8026,-1.7979,-1.7903,-1.7837,-1.7827,-1.7799,-1.7778,-1.7769,-1.7878,-1.7892,-1.7905,-1.7927,-1.7773,-1.7773,-1.7657,-1.7656,-1.7656]}]]